When you browse on this site, cookies collect data to enhance your experience and personalize the content and advertising you see.
Visit our Privacy Policy to learn more. By continuing to use the site, you agree to this use of cookies and data.
  • In United Kingdom
  • List of Countries
  • For 7 days
  • Water Temperature
  • Weather Map
  • Weather Widgets
  • user-avatar
    Login

    Hourly Weather Pomaz

    Today, 23 September, Monday

    Time Temperature Precipitation Wind Pressure Humidity
    00:00 +15°C° 0 mm 2 mps 745 mmHg 40%
    01:00 +15°C° 0 mm 2 mps 745 mmHg 41%
    02:00 +15°C° 0 mm 2 mps 745 mmHg 41%
    03:00 +15°C° 0 mm 2 mps 744 mmHg 41%
    04:00 +15°C° 0 mm 2 mps 744 mmHg 41%
    05:00 +15°C° 0 mm 2 mps 744 mmHg 43%
    06:00 +15°C° 0 mm 2 mps 744 mmHg 46%
    07:00 +15°C° 0 mm 2 mps 744 mmHg 48%
    08:00 +15°C° 0 mm 2 mps 744 mmHg 52%
    09:00 +15°C° 0 mm 2 mps 745 mmHg 55%
    10:00 +14°C° 0 mm 3 mps 745 mmHg 59%
    11:00 +15°C° 0.2 mm 2 mps 745 mmHg 63%
    12:00 +14°C° 0.2 mm 2 mps 745 mmHg 68%
    13:00 +14°C° 0.2 mm 2 mps 745 mmHg 72%
    14:00 +14°C° 0 mm 2 mps 745 mmHg 74%
    15:00 +15°C° 0 mm 2 mps 744 mmHg 75%
    16:00 +15°C° 0 mm 2 mps 744 mmHg 76%
    17:00 +14°C° 0 mm 2 mps 744 mmHg 79%
    18:00 +13°C° 0 mm 1 mps 745 mmHg 83%
    19:00 +13°C° 0 mm 1 mps 745 mmHg 86%
    20:00 +13°C° 0 mm 1 mps 745 mmHg 85%
    21:00 +13°C° 0 mm 1 mps 745 mmHg 84%
    22:00 +13°C° 0 mm 1 mps 745 mmHg 82%
    23:00 +13°C° 0 mm 1 mps 745 mmHg 81%

    Tomorrow, 24 September, Tuesday

    Time Temperature Precipitation Wind Pressure Humidity
    00:00 +13°C° 0 mm 1 mps 745 mmHg 79%
    01:00 +14°C° 0 mm 1 mps 745 mmHg 77%
    02:00 +13°C° 0 mm 1 mps 745 mmHg 79%
    03:00 +13°C° 0 mm 1 mps 745 mmHg 81%
    04:00 +13°C° 0 mm 1 mps 744 mmHg 82%
    05:00 +13°C° 0 mm 1 mps 744 mmHg 81%
    06:00 +14°C° 0 mm 1 mps 744 mmHg 80%
    07:00 +14°C° 0 mm 1 mps 744 mmHg 79%
    08:00 +16°C° 0 mm 1 mps 745 mmHg 71%
    09:00 +19°C° 0 mm 1 mps 745 mmHg 64%
    10:00 +21°C° 0 mm 1 mps 745 mmHg 56%
    11:00 +22°C° 0 mm 1 mps 744 mmHg 51%
    12:00 +23°C° 0 mm 1 mps 744 mmHg 47%
    13:00 +22°C° 0 mm 0 mps 744 mmHg 42%
    14:00 +23°C° 0 mm 1 mps 743 mmHg 43%
    15:00 +23°C° 0 mm 1 mps 743 mmHg 44%
    16:00 +22°C° 0 mm 1 mps 743 mmHg 45%
    17:00 +22°C° 0 mm 1 mps 743 mmHg 47%
    18:00 +21°C° 0 mm 1 mps 743 mmHg 50%
    19:00 +20°C° 0 mm 1 mps 743 mmHg 52%
    20:00 +19°C° 0 mm 1 mps 743 mmHg 52%
    21:00 +19°C° 0 mm 1 mps 743 mmHg 52%
    22:00 +19°C° 0 mm 1 mps 744 mmHg 52%
    23:00 +18°C° 0 mm 1 mps 743 mmHg 53%

    Day after tomorrow, 25 September, Wednesday

    Time Temperature Precipitation Wind Pressure Humidity
    00:00 +18°C° 0 mm 1 mps 743 mmHg 54%
    01:00 +18°C° 0 mm 1 mps 743 mmHg 55%
    02:00 +16°C° 0 mm 1 mps 743 mmHg 56%
    03:00 +16°C° 0 mm 1 mps 743 mmHg 57%
    04:00 +16°C° 0 mm 1 mps 743 mmHg 57%
    05:00 +16°C° 0 mm 1 mps 743 mmHg 59%
    06:00 +16°C° 0 mm 1 mps 743 mmHg 61%
    07:00 +16°C° 0 mm 1 mps 743 mmHg 62%
    08:00 +18°C° 0 mm 1 mps 743 mmHg 58%
    09:00 +20°C° 0 mm 1 mps 743 mmHg 54%
    10:00 +21°C° 0 mm 1 mps 744 mmHg 50%
    11:00 +22°C° 0 mm 1 mps 743 mmHg 48%
    12:00 +22°C° 0 mm 1 mps 743 mmHg 46%
    13:00 +23°C° 0 mm 1 mps 743 mmHg 44%
    14:00 +23°C° 0 mm 1 mps 743 mmHg 45%
    15:00 +23°C° 0 mm 1 mps 742 mmHg 46%
    16:00 +22°C° 0 mm 1 mps 742 mmHg 46%
    17:00 +22°C° 0 mm 1 mps 742 mmHg 50%
    18:00 +21°C° 0 mm 1 mps 743 mmHg 53%
    19:00 +18°C° 0 mm 0 mps 743 mmHg 56%
    20:00 +19°C° 0 mm 1 mps 743 mmHg 59%
    21:00 +19°C° 0 mm 1 mps 743 mmHg 61%
    22:00 +18°C° 0 mm 1 mps 743 mmHg 63%
    23:00 +17°C° 0 mm 2 mps 743 mmHg 67%

    26 September, Thursday

    Time Temperature Precipitation Wind Pressure Humidity
    00:00 +16°C° 0 mm 2 mps 743 mmHg 71%
    01:00 +16°C° 0 mm 3 mps 743 mmHg 76%
    02:00 +16°C° 0.3 mm 3 mps 744 mmHg 78%
    03:00 +14°C° 0.3 mm 3 mps 744 mmHg 81%
    04:00 +14°C° 0.3 mm 4 mps 744 mmHg 84%
    05:00 +14°C° 1 mm 4 mps 744 mmHg 85%
    06:00 +13°C° 1 mm 3 mps 744 mmHg 86%
    07:00 +13°C° 1 mm 3 mps 744 mmHg 88%
    08:00 +14°C° 1 mm 3 mps 745 mmHg 86%
    09:00 +15°C° 1 mm 2 mps 745 mmHg 84%
    10:00 +15°C° 1 mm 1 mps 745 mmHg 82%
    11:00 +17°C° 0.2 mm 2 mps 745 mmHg 73%
    12:00 +19°C° 0.2 mm 2 mps 745 mmHg 63%
    13:00 +20°C° 0.2 mm 3 mps 745 mmHg 54%
    14:00 +20°C° 0 mm 3 mps 745 mmHg 53%
    15:00 +21°C° 0 mm 3 mps 745 mmHg 52%
    16:00 +21°C° 0 mm 4 mps 745 mmHg 51%
    17:00 +19°C° 0 mm 3 mps 746 mmHg 56%
    18:00 +18°C° 0 mm 2 mps 746 mmHg 61%
    19:00 +17°C° 0 mm 2 mps 746 mmHg 66%
    20:00 +16°C° 0 mm 2 mps 747 mmHg 69%
    21:00 +16°C° 0 mm 2 mps 747 mmHg 71%
    22:00 +15°C° 0 mm 2 mps 747 mmHg 74%
    23:00 +15°C° 0 mm 2 mps 747 mmHg 77%

    27 September, Friday

    Time Temperature Precipitation Wind Pressure Humidity
    00:00 +14°C° 0 mm 2 mps 747 mmHg 79%
    01:00 +14°C° 0 mm 2 mps 747 mmHg 82%
    02:00 +14°C° 0 mm 1 mps 747 mmHg 84%
    03:00 +13°C° 0 mm 1 mps 748 mmHg 85%
    04:00 +13°C° 0 mm 1 mps 748 mmHg 86%
    05:00 +14°C° 0 mm 1 mps 748 mmHg 84%
    06:00 +14°C° 0 mm 1 mps 748 mmHg 82%
    07:00 +15°C° 0 mm 1 mps 748 mmHg 80%
    08:00 +18°C° 0 mm 1 mps 748 mmHg 73%
    09:00 +20°C° 0 mm 1 mps 748 mmHg 65%
    10:00 +21°C° 0 mm 1 mps 749 mmHg 58%
    11:00 +21°C° 0 mm 2 mps 748 mmHg 55%
    12:00 +23°C° 0 mm 2 mps 748 mmHg 52%
    13:00 +24°C° 0 mm 2 mps 748 mmHg 49%
    14:00 +24°C° 0 mm 2 mps 747 mmHg 49%
    15:00 +24°C° 0 mm 2 mps 747 mmHg 49%
    16:00 +24°C° 0 mm 2 mps 747 mmHg 49%
    17:00 +23°C° 0 mm 2 mps 747 mmHg 52%
    18:00 +21°C° 0 mm 1 mps 747 mmHg 56%
    19:00 +20°C° 0 mm 1 mps 747 mmHg 59%
    20:00 +19°C° 0 mm 1 mps 747 mmHg 60%
    21:00 +18°C° 0 mm 2 mps 747 mmHg 62%
    22:00 +18°C° 0 mm 2 mps 747 mmHg 64%
    23:00 +17°C° 0 mm 2 mps 747 mmHg 65%

    28 September, Saturday

    Time Temperature Precipitation Wind Pressure Humidity
    00:00 +17°C° 0 mm 2 mps 747 mmHg 67%
    01:00 +16°C° 0 mm 2 mps 747 mmHg 69%
    02:00 +16°C° 0 mm 2 mps 747 mmHg 71%
    03:00 +16°C° 0 mm 2 mps 746 mmHg 73%
    04:00 +15°C° 0 mm 1 mps 746 mmHg 75%
    05:00 +15°C° 0 mm 2 mps 746 mmHg 74%
    06:00 +16°C° 0 mm 2 mps 746 mmHg 73%
    07:00 +16°C° 0 mm 2 mps 746 mmHg 72%
    08:00 +18°C° 0 mm 2 mps 746 mmHg 66%
    09:00 +19°C° 0 mm 3 mps 746 mmHg 61%
    10:00 +21°C° 0 mm 3 mps 747 mmHg 55%
    11:00 +21°C° 0 mm 3 mps 746 mmHg 53%
    12:00 +22°C° 0 mm 3 mps 746 mmHg 51%
    13:00 +24°C° 0 mm 2 mps 746 mmHg 49%
    14:00 +22°C° 0 mm 3 mps 745 mmHg 55%
    15:00 +20°C° 0 mm 3 mps 745 mmHg 61%
    16:00 +19°C° 0 mm 3 mps 745 mmHg 68%
    17:00 +18°C° 0 mm 3 mps 745 mmHg 72%
    18:00 +18°C° 0 mm 2 mps 745 mmHg 76%
    19:00 +17°C° 0 mm 2 mps 745 mmHg 80%
    20:00 +16°C° 0 mm 2 mps 745 mmHg 82%
    21:00 +16°C° 0 mm 2 mps 745 mmHg 84%
    22:00 +15°C° 0 mm 2 mps 746 mmHg 86%
    23:00 +15°C° 0 mm 2 mps 746 mmHg 87%
    Show more